• In Österreich
  • Länderverzeichnis
  • Für 7 Tage
  • Wassertemperatur
  • Satellitenkarten
  • Wetterkarte
  • News
  • Widgets
  • user-avatar
    Anmelden

    Stündliche Wetter Bristol

    Heute, 23 Juli, Montag

    Zeit Temperatur Niederschläge Wind Luftdruck Luftfeuchtigkeit
    00:00 +19°C° 0 mm 1 m/S 761 mmHg 94%
    01:00 +19°C° 0 mm 1 m/S 761 mmHg 94%
    02:00 +19°C° 0 mm 1 m/S 761 mmHg 95%
    03:00 +19°C° 0 mm 1 m/S 761 mmHg 95%
    04:00 +19°C° 0 mm 1 m/S 761 mmHg 93%
    05:00 +19°C° 0 mm 1 m/S 761 mmHg 92%
    06:00 +20°C° 0 mm 1 m/S 761 mmHg 89%
    07:00 +21°C° 0 mm 2 m/S 761 mmHg 83%
    08:00 +24°C° 0 mm 2 m/S 761 mmHg 76%
    09:00 +25°C° 0 mm 3 m/S 761 mmHg 69%
    10:00 +26°C° 0 mm 3 m/S 761 mmHg 66%
    11:00 +27°C° 0 mm 3 m/S 761 mmHg 63%
    12:00 +28°C° 0 mm 4 m/S 761 mmHg 60%
    13:00 +28°C° 0 mm 4 m/S 761 mmHg 61%
    14:00 +27°C° 0 mm 4 m/S 761 mmHg 63%
    15:00 +27°C° 0 mm 4 m/S 760 mmHg 64%
    16:00 +27°C° 0 mm 4 m/S 760 mmHg 67%
    17:00 +26°C° 0 mm 4 m/S 760 mmHg 69%
    18:00 +25°C° 0 mm 3 m/S 760 mmHg 71%
    19:00 +24°C° 0 mm 3 m/S 760 mmHg 77%
    20:00 +21°C° 0 mm 2 m/S 760 mmHg 83%
    21:00 +20°C° 0 mm 2 m/S 760 mmHg 90%
    22:00 +19°C° 0 mm 2 m/S 760 mmHg 91%
    23:00 +18°C° 0 mm 2 m/S 760 mmHg 93%

    Morgen, 24 Juli, Dienstag

    Zeit Temperatur Niederschläge Wind Luftdruck Luftfeuchtigkeit
    00:00 +19°C° 0 mm 1 m/S 760 mmHg 94%
    01:00 +19°C° 0 mm 1 m/S 760 mmHg 94%
    02:00 +18°C° 0 mm 1 m/S 760 mmHg 94%
    03:00 +18°C° 0 mm 1 m/S 760 mmHg 94%
    04:00 +19°C° 0 mm 1 m/S 760 mmHg 93%
    05:00 +19°C° 0 mm 1 m/S 759 mmHg 92%
    06:00 +19°C° 0 mm 1 m/S 759 mmHg 92%
    07:00 +21°C° 0 mm 1 m/S 759 mmHg 84%
    08:00 +21°C° 0 mm 2 m/S 759 mmHg 76%
    09:00 +23°C° 0 mm 2 m/S 759 mmHg 68%
    10:00 +25°C° 0 mm 2 m/S 759 mmHg 63%
    11:00 +26°C° 0 mm 3 m/S 759 mmHg 57%
    12:00 +27°C° 0 mm 3 m/S 759 mmHg 51%
    13:00 +27°C° 0 mm 4 m/S 759 mmHg 51%
    14:00 +28°C° 0 mm 4 m/S 759 mmHg 51%
    15:00 +28°C° 0 mm 4 m/S 759 mmHg 51%
    16:00 +27°C° 0 mm 4 m/S 759 mmHg 54%
    17:00 +26°C° 0 mm 4 m/S 759 mmHg 58%
    18:00 +26°C° 0 mm 4 m/S 759 mmHg 62%
    19:00 +24°C° 0 mm 3 m/S 759 mmHg 70%
    20:00 +21°C° 0 mm 3 m/S 760 mmHg 79%
    21:00 +19°C° 0 mm 2 m/S 760 mmHg 88%
    22:00 +18°C° 0 mm 2 m/S 760 mmHg 90%
    23:00 +17°C° 0 mm 2 m/S 760 mmHg 92%

    übermorgen, 25 Juli, Mittwoch

    Zeit Temperatur Niederschläge Wind Luftdruck Luftfeuchtigkeit
    00:00 +17°C° 0 mm 2 m/S 760 mmHg 94%
    01:00 +16°C° 0 mm 2 m/S 760 mmHg 94%
    02:00 +16°C° 0 mm 2 m/S 760 mmHg 94%
    03:00 +16°C° 0 mm 2 m/S 761 mmHg 94%
    04:00 +16°C° 0 mm 2 m/S 761 mmHg 92%
    05:00 +16°C° 0 mm 2 m/S 761 mmHg 90%
    06:00 +17°C° 0 mm 2 m/S 761 mmHg 88%
    07:00 +18°C° 0 mm 2 m/S 761 mmHg 80%
    08:00 +20°C° 0 mm 2 m/S 761 mmHg 72%
    09:00 +23°C° 0 mm 2 m/S 762 mmHg 65%
    10:00 +24°C° 0 mm 2 m/S 762 mmHg 60%
    11:00 +25°C° 0 mm 2 m/S 762 mmHg 56%
    12:00 +26°C° 0 mm 2 m/S 762 mmHg 52%
    13:00 +26°C° 0 mm 2 m/S 762 mmHg 51%
    14:00 +26°C° 0 mm 2 m/S 761 mmHg 49%
    15:00 +27°C° 0 mm 2 m/S 761 mmHg 48%
    16:00 +26°C° 0 mm 2 m/S 761 mmHg 50%
    17:00 +26°C° 0 mm 2 m/S 761 mmHg 51%
    18:00 +25°C° 0 mm 2 m/S 761 mmHg 53%
    19:00 +23°C° 0 mm 2 m/S 761 mmHg 60%
    20:00 +20°C° 0 mm 2 m/S 761 mmHg 67%
    21:00 +18°C° 0 mm 2 m/S 761 mmHg 74%
    22:00 +18°C° 0 mm 2 m/S 761 mmHg 77%
    23:00 +18°C° 0 mm 1 m/S 761 mmHg 80%

    26 Juli, Donnerstag

    Zeit Temperatur Niederschläge Wind Luftdruck Luftfeuchtigkeit
    00:00 +18°C° 0 mm 1 m/S 761 mmHg 82%
    01:00 +16°C° 0 mm 1 m/S 760 mmHg 83%
    02:00 +16°C° 0 mm 1 m/S 760 mmHg 84%
    03:00 +16°C° 0 mm 1 m/S 760 mmHg 86%
    04:00 +18°C° 0 mm 1 m/S 760 mmHg 84%
    05:00 +18°C° 0 mm 1 m/S 759 mmHg 82%
    06:00 +19°C° 0 mm 1 m/S 759 mmHg 80%
    07:00 +20°C° 0 mm 2 m/S 759 mmHg 72%
    08:00 +24°C° 0 mm 2 m/S 759 mmHg 65%
    09:00 +26°C° 0 mm 3 m/S 759 mmHg 57%
    10:00 +27°C° 0 mm 3 m/S 759 mmHg 56%
    11:00 +28°C° 0 mm 3 m/S 759 mmHg 55%
    12:00 +29°C° 0 mm 3 m/S 758 mmHg 54%
    13:00 +29°C° 0,1 mm 4 m/S 758 mmHg 53%
    14:00 +29°C° 0,1 mm 4 m/S 758 mmHg 52%
    15:00 +30°C° 0,1 mm 4 m/S 758 mmHg 51%
    16:00 +29°C° 0 mm 4 m/S 757 mmHg 53%
    17:00 +28°C° 0 mm 4 m/S 757 mmHg 55%
    18:00 +28°C° 0 mm 4 m/S 757 mmHg 57%
    19:00 +25°C° 0 mm 3 m/S 757 mmHg 66%
    20:00 +22°C° 0 mm 3 m/S 758 mmHg 74%
    21:00 +20°C° 0 mm 2 m/S 758 mmHg 83%
    22:00 +19°C° 0 mm 2 m/S 758 mmHg 85%
    23:00 +18°C° 0 mm 2 m/S 758 mmHg 87%

    27 Juli, Freitag

    Zeit Temperatur Niederschläge Wind Luftdruck Luftfeuchtigkeit
    00:00 +18°C° 0 mm 1 m/S 758 mmHg 90%
    01:00 +18°C° 0 mm 1 m/S 757 mmHg 90%
    02:00 +18°C° 0 mm 1 m/S 757 mmHg 90%
    03:00 +16°C° 0 mm 1 m/S 757 mmHg 91%
    04:00 +18°C° 0 mm 1 m/S 757 mmHg 89%
    05:00 +17°C° 0 mm 2 m/S 757 mmHg 88%
    06:00 +18°C° 0 mm 2 m/S 757 mmHg 86%
    07:00 +20°C° 0 mm 2 m/S 758 mmHg 81%
    08:00 +21°C° 0 mm 3 m/S 758 mmHg 75%
    09:00 +24°C° 0 mm 3 m/S 758 mmHg 70%
    10:00 +23°C° 0 mm 4 m/S 758 mmHg 65%
    11:00 +25°C° 0 mm 4 m/S 758 mmHg 59%
    12:00 +26°C° 0 mm 4 m/S 758 mmHg 54%
    13:00 +26°C° 0 mm 5 m/S 759 mmHg 50%
    14:00 +26°C° 0 mm 5 m/S 759 mmHg 46%
    15:00 +26°C° 0 mm 5 m/S 759 mmHg 42%
    16:00 +25°C° 0 mm 5 m/S 759 mmHg 47%
    17:00 +23°C° 0 mm 5 m/S 759 mmHg 51%
    18:00 +22°C° 0 mm 5 m/S 760 mmHg 55%
    19:00 +20°C° 0 mm 4 m/S 760 mmHg 65%
    20:00 +18°C° 0 mm 4 m/S 761 mmHg 75%
    21:00 +16°C° 0 mm 3 m/S 761 mmHg 84%
    22:00 +16°C° 0 mm 3 m/S 761 mmHg 86%
    23:00 +14°C° 0 mm 3 m/S 761 mmHg 88%

    28 Juli, Samstag

    Zeit Temperatur Niederschläge Wind Luftdruck Luftfeuchtigkeit
    00:00 +13°C° 0 mm 3 m/S 762 mmHg 90%
    01:00 +14°C° 0 mm 2 m/S 762 mmHg 90%
    02:00 +13°C° 0 mm 2 m/S 762 mmHg 90%
    03:00 +13°C° 0 mm 2 m/S 762 mmHg 90%
    04:00 +13°C° 0 mm 2 m/S 762 mmHg 87%
    05:00 +13°C° 0 mm 1 m/S 762 mmHg 85%
    06:00 +14°C° 0 mm 1 m/S 763 mmHg 82%
    07:00 +16°C° 0 mm 1 m/S 763 mmHg 73%
    08:00 +19°C° 0 mm 1 m/S 763 mmHg 63%
    09:00 +21°C° 0 mm 1 m/S 763 mmHg 53%
    10:00 +21°C° 0 mm 2 m/S 763 mmHg 48%
    11:00 +23°C° 0 mm 2 m/S 763 mmHg 42%
    12:00 +25°C° 0 mm 2 m/S 763 mmHg 37%
    13:00 +25°C° 0 mm 2 m/S 762 mmHg 36%
    14:00 +25°C° 0 mm 2 m/S 762 mmHg 36%
    15:00 +26°C° 0 mm 3 m/S 762 mmHg 35%
    16:00 +25°C° 0 mm 3 m/S 762 mmHg 39%
    17:00 +24°C° 0 mm 3 m/S 762 mmHg 43%
    18:00 +24°C° 0 mm 3 m/S 762 mmHg 47%
    19:00 +20°C° 0 mm 3 m/S 762 mmHg 56%
    20:00 +18°C° 0 mm 2 m/S 762 mmHg 65%
    21:00 +16°C° 0 mm 2 m/S 762 mmHg 74%
    22:00 +15°C° 0 mm 2 m/S 762 mmHg 77%
    23:00 +14°C° 0 mm 1 m/S 762 mmHg 80%
    Mehr zeigen